This is the latest recevied weather packets stored in our database for station/object N4ZIQ. If no packets are shown the sender has not sent any weather packets the latest 10 day(s).
| Time | Temp. | Humidity | Pressure | Rain* | Wind** | Luminosity | Snow |
|---|---|---|---|---|---|---|---|
| 1777487143 | 30° C | 55% | 1015.2 hPa | 0 mm | - | 865 W/m² | - |
| 1777486843 | 30° C | 54% | 1015.3 hPa | 0 mm | - | 872 W/m² | - |
| 1777486549 | 28.89° C | 57% | 1015.4 hPa | 0 mm | - | 911 W/m² | - |
| 1777486244 | 28.89° C | 56% | 1015.6 hPa | 0 mm | - | 244 W/m² | - |
| 1777485946 | 29.44° C | 56% | 1015.6 hPa | 0 mm | - | 770 W/m² | - |
| 1777485665 | 29.44° C | 57% | 1015.6 hPa | 0 mm | - | 775 W/m² | - |
| 1777485344 | 29.44° C | 58% | 1015.6 hPa | 0 mm | - | 854 W/m² | - |
| 1777485043 | 28.89° C | 58% | 1015.7 hPa | 0 mm | - | 652 W/m² | - |
| 1777484752 | 28.89° C | 57% | 1015.8 hPa | 0 mm | - | 250 W/m² | - |
| 1777484444 | 28.89° C | 58% | 1015.9 hPa | 0 mm | - | 229 W/m² | - |
| 1777484144 | 30° C | 57% | 1015.9 hPa | 0 mm | - | 969 W/m² | - |
| 1777483848 | 29.44° C | 57% | 1016.1 hPa | 0 mm | - | 397 W/m² | - |
| 1777483544 | 30° C | 58% | 1016.1 hPa | 0 mm | - | 918 W/m² | - |
| 1777483243 | 28.89° C | 57% | 1016.1 hPa | 0 mm | - | 981 W/m² | - |
| 1777482959 | 28.89° C | 56% | 1016.3 hPa | 0 mm | - | 942 W/m² | - |
| 1777482644 | 28.89° C | 59% | 1016.2 hPa | 0 mm | - | 923 W/m² | - |
| 1777482344 | 28.89° C | 57% | 1016.3 hPa | 0 mm | - | 868 W/m² | - |
| 1777482047 | 29.44° C | 59% | 1016.3 hPa | 0 mm | - | 858 W/m² | - |
| 1777481745 | 28.89° C | 61% | 1016.5 hPa | 0 mm | - | 823 W/m² | - |
| 1777481445 | 28.89° C | 59% | 1016.5 hPa | 0 mm | - | 867 W/m² | - |
| 1777481157 | 28.33° C | 60% | 1016.7 hPa | 0 mm | - | 925 W/m² | - |
| 1777480844 | 29.44° C | 59% | 1016.7 hPa | 0 mm | - | 223 W/m² | - |
| 1777480544 | 28.33° C | 61% | 1016.8 hPa | 0 mm | - | 853 W/m² | - |
| 1777480254 | 28.89° C | 59% | 1016.9 hPa | 0 mm | - | 853 W/m² | - |
| 1777479943 | 28.89° C | 58% | 1017.1 hPa | 0 mm | - | 840 W/m² | - |
* Rain latest hour (hover to see other rain measurements)
** Current wind speed in m/s (hover to see current wind gust speed)